Temperature
22 22 22 21 21 20 20 19 19 19 19 18 18 17 17 17 17 17 17 16 16 17 17 17 17 17 17 17 17 17 17 17 17 17 17 17 17 17 17 17 17 16 17
22 22 22 21 21 20 20 19 19 19 18 18 17 17 17 17 17 17 16 16 17 17 17 17 17 17 17 17 17 17 17 17 17 17 17 17 17 17 17 17 17 16 17
22 22 22 21 21 21 20 20 19 19 18 18 17 17 16 16 16 16 16 16 17 17 17 17 17 17 17 17 17 17 17 17 17 17 17 16 16 17 17 17 17 17 17
22 22 22 21 21 21 21 20 19 19 18 18 17 16 16 16 16 16 16 16 16 16 16 16 16 16 16 16 17 17 17 17 17 17 16 16 16 17 17 17 17 17 17
21 22 21 21 21 21 21 20 19 19 18 18 16 16 16 16 16 16 16 16 16 16 16 16 16 16 16 16 16 17 17 17 17 17 16 16 16 17 17 17 17 17 17
21 21 21 21 21 20 20 20 19 19 18 18 16 16 16 16 16 16 16 16 16 16 16 16 16 16 16 16 16 16 17 17 16 16 15 16 15 16 17 17 16 16 16
20 21 21 21 20 20 19 19 19 19 18 18 16 15 16 16 16 16 16 16 16 16 16 16 16 16 16 16 16 16 17 16 16 15 16 15 15 16 16 16 16 16 16
21 21 21 20 20 19 19 19 18 18 18 17 16 16 15 16 16 15 15 15 15 16 16 16 16 16 16 16 16 16 16 16 16 16 16 15 16 16 16 16 16 16 16
21 21 20 20 20 19 18 18 18 18 18 17 17 16 15 15 15 15 15 15 15 15 16 16 16 16 16 16 16 15 15 16 15 15 15 15 16 16 16 16 16 16 15
21 21 20 20 19 18 18 17 17 17 17 17 16 16 16 15 15 15 14 14 15 15 15 16 16 16 16 15 15 15 15 15 15 15 15 15 16 16 16 16 16 15 15
20 20 20 19 19 18 17 16 17 16 16 16 15 15 16 15 14 14 14 15 15 15 16 16 15 15 15 15 15 15 15 14 14 15 15 15 16 16 16 15 16 16 15
19 19 19 19 19 18 17 16 16 15 15 15 14 14 13 13 13 13 14 16 16 16 16 16 16 15 15 15 15 15 15 14 14 14 15 15 16 16 15 15 15 15 15
19 19 19 19 18 18 17 16 16 15 15 14 14 14 13 13 13 13 14 15 16 16 16 16 16 15 14 14 15 15 15 15 14 14 14 15 15 15 15 15 15 15 15
18 18 18 18 18 18 17 16 16 15 14 14 14 14 13 13 13 13 13 13 14 14 15 15 15 14 14 14 14 15 15 15 14 14 14 15 15 15 15 15 15 15 15
17 17 17 17 17 17 17 16 16 15 14 14 14 14 13 13 12 12 12 12 12 12 13 14 14 14 14 14 14 14 14 14 14 14 14 14 14 15 15 15 15 15 15
16 16 16 16 16 17 16 16 15 15 14 14 13 13 13 12 12 12 12 12 12 12 12 12 13 13 13 14 14 14 14 14 13 13 13 13 14 14 14 14 14 14 14
15 15 16 16 16 16 16 16 15 15 15 14 13 13 12 12 12 11 11 12 12 12 12 12 12 13 13 13 14 14 14 14 13 13 13 13 13 13 14 14 14 13 13
14 15 15 15 15 15 15 15 14 14 14 13 13 12 12 11 11 11 11 11 11 11 12 12 12 13 13 13 13 13 13 13 13 13 13 13 13 13 13 13 13 13 13
14 14 14 14 14 15 15 15 14 13 13 12 12 11 11 11 11 11 11 11 11 11 12 12 12 12 12 13 13 13 13 13 13 13 13 13 13 13 13 13 13 13 13
12 13 13 13 14 14 14 14 14 13 12 11 11 11 11 11 11 11 11 11 11 11 11 12 12 12 12 12 12 12 12 12 12 12 12 12 12 13 13 13 13 13 13
12 12 12 13 13 13 13 13 13 12 12 11 10 10 10 10 10 10 10 10 10 11 11 11 11 11 11 12 12 12 12 12 12 12 12 12 12 12 13 13 13 12 13
11 11 11 12 12 13 13 13 13 12 11 10 10 10 10 10 10 10 10 10 10 10 10 10 10 10 11 11 11 11 11 11 10 11 12 12 11 11 11 12 12 12 12
11 10 11 11 12 12 12 12 12 11 10 10 10 10 10 10 10 10 10 9 9 9 9 9 9 9 9 10 10 10 11 12 11 10 10 10 10 10 10 11 11 11 11
11 11 10 10 11 11 12 12 11 10 10 10 9 9 9 9 9 9 9 9 9 9 9 9 9 9 9 9 9 9 9 10 10 10 9 9 10 10 10 10 10 10 10
9 10 9 9 10 10 11 11 10 10 10 9 9 9 9 9 9 9 9 8 8 8 8 8 8 8 8 8 8 8 8 8 9 9 9 9 9 9 9 9 9 9 9
7 7 8 8 9 9 9 10 10 10 10 9 9 9 8 8 8 8 8 8 8 8 8 8 8 8 8 8 7 7 7 7 7 8 8 8 8 8 8 8 9 8 9
Wind_Speed
3 5 14 14 13 12 11 10 9 8 7 6 6 7 7 7 6 6 5 5 6 6 6 6 6 6 5 5 6 6 5 4 4 4 4 5 5 4 4 2 3 5 3
2 5 13 14 13 12 11 10 10 9 8 7 7 7 8 8 8 7 7 7 7 7 7 7 7 7 7 7 6 6 6 5 5 4 2 3 4 4 4 3 3 4 1
2 5 12 13 13 12 12 11 11 10 9 8 9 8 7 8 8 8 8 7 7 7 8 8 8 8 8 8 8 8 7 6 5 4 4 4 5 4 2 2 2 2 2
2 6 9 14 14 13 13 12 12 11 9 9 9 8 6 6 7 7 7 7 7 7 7 8 8 8 8 9 9 9 9 8 6 5 6 3 3 5 2 2 2 2 2
4 6 8 12 14 13 13 13 12 11 10 10 9 8 6 5 5 5 6 5 5 5 6 7 8 8 9 9 9 9 10 9 8 8 4 3 3 5 3 3 2 3 2
4 6 8 12 13 13 12 12 12 12 11 10 10 9 7 6 6 5 3 2 3 4 5 6 8 9 9 9 9 9 10 10 9 8 5 4 4 4 2 3 2 2 2
4 5 6 10 11 11 12 12 12 12 11 10 9 8 8 7 7 6 2 1 2 3 5 6 8 9 10 11 11 10 10 10 9 6 6 5 2 2 3 3 3 2 2
2 3 4 8 9 11 12 12 12 12 11 10 9 8 8 8 8 7 5 3 2 3 5 6 8 9 11 11 11 11 11 11 9 8 7 6 3 3 4 4 4 4 4
2 1 4 7 10 12 12 12 13 13 12 11 10 9 7 6 6 5 3 2 1 3 5 6 8 8 10 11 11 12 12 10 10 7 7 6 5 5 6 5 5 6 5
2 1 2 5 8 9 11 13 12 12 12 12 11 9 5 4 5 2 4 1 3 5 6 7 7 8 9 10 11 12 12 11 11 8 7 5 4 6 6 5 5 5 5
1 1 2 3 5 8 9 8 11 12 12 11 12 12 9 11 11 8 9 2 6 8 8 8 8 8 8 10 11 10 12 11 10 8 7 3 4 6 7 6 5 5 5
2 2 3 3 4 6 6 7 8 8 9 10 10 10 10 9 8 8 4 5 9 10 10 11 10 9 10 10 11 12 11 12 9 8 6 5 6 7 8 7 6 6 7
2 2 2 3 2 4 4 5 5 5 6 7 8 8 8 8 7 7 7 6 9 10 11 10 11 11 11 8 7 9 11 10 8 7 6 7 7 8 9 9 7 7 7
3 1 1 2 1 0 2 4 4 5 5 5 6 8 7 5 6 5 5 6 6 6 7 8 8 10 10 10 9 8 9 8 8 7 6 7 8 9 10 11 10 8 8
5 2 1 1 2 2 2 2 4 5 5 6 6 7 7 6 6 5 5 5 6 6 6 7 9 10 10 9 7 6 7 9 9 9 6 8 9 10 11 11 11 10 9
7 5 3 2 3 3 3 3 2 3 4 5 6 7 8 7 6 6 6 5 6 6 6 7 9 9 9 6 5 5 6 7 9 9 8 7 10 10 10 11 11 11 10
8 6 6 4 4 4 3 3 2 2 3 4 5 7 8 8 8 7 7 7 6 7 7 7 8 7 6 5 6 6 6 7 8 9 9 8 8 11 12 12 12 12 12
9 9 8 6 6 5 4 3 3 3 3 4 5 6 8 8 8 7 7 7 7 7 7 7 7 7 7 7 7 6 7 7 9 9 9 9 9 9 11 14 14 14 14
11 10 9 7 7 5 4 4 4 4 4 4 5 5 6 7 7 7 6 6 7 7 7 7 7 7 7 8 7 7 7 7 8 8 9 9 9 9 9 8 12 14 15
9 9 9 8 7 6 5 4 4 4 5 5 5 4 5 5 6 6 5 6 6 6 6 7 7 6 6 7 7 7 7 7 6 6 7 7 6 7 8 8 8 10 13
8 9 10 10 9 7 6 6 5 5 5 5 4 4 5 5 5 4 4 4 4 4 4 5 4 5 4 3 5 6 6 6 6 4 4 4 5 4 5 5 6 7 7
10 11 11 12 11 10 7 6 5 5 5 4 3 3 3 4 3 3 5 4 4 3 3 3 4 4 3 3 4 4 5 6 5 4 3 3 2 1 1 1 3 5 7
12 12 11 12 11 11 9 6 5 5 5 5 6 5 4 3 3 3 4 4 4 4 4 3 3 5 4 4 4 4 4 6 5 5 4 3 1 1 1 2 3 4 5
18 13 13 13 12 11 10 9 10 8 8 9 6 5 5 4 4 3 4 4 5 5 5 4 3 3 4 4 3 2 2 1 4 4 4 3 1 2 3 3 4 4 5
21 16 14 14 14 12 11 10 10 10 8 7 7 7 6 5 4 4 4 4 5 5 5 5 5 5 4 4 4 4 4 3 5 5 5 5 4 3 3 4 4 4 5
21 20 17 15 15 14 12 11 11 11 10 9 9 8 7 6 5 5 4 5 5 5 6 6 6 6 6 6 5 5 5 5 6 6 6 5 5 4 5 4 5 4 5
Wind_Direction
169 183 179 188 187 187 189 192 194 196 201 209 215 212 218 220 219 215 215 209 200 195 200 205 205 199 191 183 174 159 147 135 112 79 66 77 84 90 91 104 241 223 136
3 177 176 189 190 191 193 196 200 206 209 214 224 225 225 228 228 224 221 218 214 212 215 217 216 210 203 192 182 167 157 146 131 111 101 126 103 85 83 71 342 359 8
349 172 177 190 192 195 197 200 206 211 214 220 226 232 235 235 239 232 225 221 225 227 227 225 220 213 205 196 183 172 169 164 154 154 217 199 131 110 91 90 71 29 354
253 184 188 178 193 197 200 203 210 212 220 231 230 227 244 247 255 247 232 226 231 239 238 231 224 216 206 197 187 184 183 176 169 199 224 194 161 119 126 120 110 101 71
207 190 186 181 195 201 204 206 211 215 224 232 233 226 244 260 268 255 242 240 243 251 248 233 227 222 211 200 192 193 193 183 177 221 227 210 196 128 155 139 115 115 109
202 192 187 192 201 205 209 212 215 220 227 231 238 221 229 253 276 281 277 272 268 264 253 240 232 226 215 203 196 197 195 185 197 222 224 224 216 133 192 171 156 149 135
223 207 197 195 209 211 214 218 221 226 227 233 245 224 224 242 261 273 261 305 302 278 264 255 244 236 220 206 198 195 188 182 226 226 227 227 215 124 238 225 225 227 227
274 236 218 199 221 220 217 220 222 228 228 232 247 246 238 241 254 262 254 251 274 298 282 269 257 246 233 215 204 197 185 193 228 232 227 225 167 209 243 258 269 263 254
39 241 235 220 215 218 223 223 222 227 229 228 236 248 257 256 260 276 304 302 312 351 331 293 266 250 241 230 216 205 191 201 242 234 229 230 170 219 236 261 283 274 257
53 38 257 234 231 225 218 212 222 227 232 230 228 233 249 267 254 250 260 357 341 328 328 324 289 254 243 239 230 218 194 200 237 233 232 211 169 230 239 257 286 281 260
42 20 332 271 243 236 234 216 216 222 229 237 228 219 230 247 245 236 248 276 290 291 295 300 307 283 250 234 233 225 200 230 228 230 230 151 205 235 244 258 282 277 262
298 343 337 306 267 243 236 234 232 227 222 228 233 224 230 240 248 260 265 264 273 275 274 269 274 276 249 235 216 210 225 230 231 224 217 169 224 235 240 251 271 275 269
286 324 342 333 291 245 224 230 235 233 230 231 234 235 235 241 244 249 255 242 248 248 256 246 244 241 237 234 228 220 227 229 229 226 212 187 226 238 243 251 259 266 276
235 269 4 15 32 190 214 210 224 228 229 232 229 235 236 239 247 250 250 255 254 248 250 252 246 237 238 236 228 223 221 223 227 224 210 190 226 237 244 252 255 254 266
217 199 141 78 91 114 145 184 214 223 232 231 232 230 234 239 243 242 246 244 250 253 248 244 238 232 231 231 222 219 220 222 224 219 212 201 227 239 244 248 252 254 262
217 206 191 164 135 138 154 172 194 224 231 245 240 237 235 240 242 243 248 247 252 252 252 246 240 234 227 213 199 212 224 231 230 224 225 207 218 234 245 248 251 258 265
221 214 208 199 191 177 169 172 194 216 237 243 243 241 235 236 238 238 245 246 249 249 249 244 241 237 222 199 198 204 214 226 236 234 228 231 223 218 231 245 253 259 263
224 219 214 212 215 207 202 203 210 226 233 237 241 240 237 235 234 237 243 248 249 247 243 235 226 219 214 207 205 204 210 215 227 234 235 231 235 237 228 230 245 253 258
233 227 223 221 224 219 212 214 222 225 230 233 233 236 232 232 232 237 245 252 247 244 241 236 224 217 213 207 206 207 212 217 224 227 234 234 234 241 251 232 235 250 256
251 244 238 232 232 223 218 219 216 224 226 228 226 220 218 217 224 236 242 248 250 244 241 237 224 218 221 217 219 219 222 227 229 234 246 245 242 247 255 261 256 246 245
263 248 245 243 234 229 227 226 224 223 220 216 214 214 216 213 212 223 231 235 241 243 239 232 212 204 203 211 217 223 222 225 227 224 235 249 242 249 254 260 263 271 265
292 263 250 246 241 234 233 232 230 221 218 209 195 197 207 205 201 210 223 225 224 224 214 209 201 193 181 197 214 212 210 197 185 170 165 171 190 188 240 291 282 275 277
323 284 265 256 247 238 230 219 207 205 209 207 203 197 197 201 194 200 213 217 213 213 207 201 207 208 196 187 212 218 216 216 178 173 153 153 107 18 350 348 320 299 289
344 313 285 275 260 244 231 228 224 223 223 222 214 206 205 208 207 205 212 216 215 213 207 202 201 211 206 199 198 239 249 202 205 193 197 206 279 303 319 320 314 312 303
353 337 306 288 275 259 245 239 235 234 234 227 220 221 224 215 214 214 220 222 222 220 216 213 205 208 215 215 208 200 203 204 223 225 220 224 248 260 295 306 303 305 316
354 347 330 303 285 272 258 246 237 233 227 225 226 228 227 218 206 203 216 223 224 223 219 220 220 222 225 229 228 220 212 205 205 212 225 232 248 263 286 296 297 310 320
Height
1511 1510 1509 1509 1510 1510 1511 1512 1513 1514 1514 1515 1515 1516 1517 1518 1518 1519 1519 1520 1520 1520 1521 1521 1521 1521 1522 1522 1522 1522 1523 1523 1524 1524 1523 1524 1523 1523 1523 1524 1524 1525 1524
1511 1510 1510 1509 1510 1510 1511 1511 1512 1513 1513 1514 1515 1516 1517 1517 1518 1518 1518 1518 1519 1519 1519 1520 1520 1521 1521 1521 1521 1522 1523 1523 1524 1524 1524 1524 1524 1524 1524 1523 1524 1524 1524
1511 1511 1510 1510 1510 1510 1510 1511 1511 1512 1513 1514 1515 1515 1516 1516 1517 1517 1517 1517 1518 1518 1518 1519 1519 1520 1520 1520 1521 1521 1522 1523 1523 1524 1524 1525 1524 1524 1523 1523 1523 1524 1524
1510 1510 1510 1510 1510 1510 1510 1510 1510 1511 1512 1513 1514 1514 1515 1515 1516 1516 1516 1516 1517 1517 1517 1518 1518 1519 1519 1519 1520 1520 1521 1522 1523 1523 1525 1525 1525 1523 1523 1523 1523 1523 1523
1510 1510 1510 1510 1510 1509 1509 1509 1509 1510 1511 1511 1512 1513 1513 1514 1514 1515 1515 1515 1516 1516 1516 1516 1517 1517 1518 1518 1519 1519 1520 1521 1521 1522 1524 1524 1524 1522 1522 1522 1522 1522 1522
1510 1509 1509 1509 1509 1508 1508 1508 1508 1509 1509 1510 1511 1511 1512 1512 1513 1513 1514 1514 1514 1514 1514 1515 1515 1516 1516 1516 1517 1518 1519 1520 1520 1522 1523 1523 1523 1522 1521 1521 1521 1521 1521
1509 1508 1508 1508 1507 1507 1507 1507 1507 1507 1508 1508 1509 1510 1510 1510 1511 1511 1512 1512 1512 1512 1513 1513 1513 1513 1514 1514 1515 1516 1517 1518 1519 1521 1521 1521 1521 1520 1520 1520 1520 1520 1520
1507 1507 1506 1506 1506 1506 1506 1506 1506 1505 1506 1506 1507 1507 1508 1508 1508 1509 1509 1510 1510 1510 1510 1511 1511 1511 1512 1512 1513 1514 1515 1516 1517 1518 1518 1519 1518 1518 1518 1519 1518 1518 1518
1505 1505 1505 1504 1504 1504 1504 1504 1504 1504 1503 1504 1504 1505 1505 1505 1506 1506 1506 1507 1507 1507 1508 1508 1509 1509 1510 1510 1511 1512 1513 1514 1515 1516 1516 1517 1516 1516 1517 1517 1517 1516 1516
1504 1503 1503 1502 1502 1502 1501 1501 1501 1501 1501 1501 1501 1502 1502 1502 1503 1503 1503 1503 1503 1504 1504 1505 1506 1506 1507 1508 1509 1510 1510 1511 1512 1514 1514 1514 1514 1514 1514 1515 1515 1515 1514
1501 1500 1500 1499 1499 1499 1499 1499 1499 1499 1499 1498 1499 1498 1499 1500 1501 1500 1500 1499 1500 1500 1501 1502 1503 1503 1504 1505 1506 1507 1507 1508 1510 1511 1511 1511 1511 1512 1512 1512 1512 1512 1512
1499 1498 1497 1496 1496 1495 1495 1495 1496 1496 1496 1496 1497 1497 1496 1497 1497 1497 1496 1495 1496 1496 1497 1498 1499 1500 1501 1502 1503 1503 1504 1505 1506 1507 1508 1507 1508 1509 1509 1510 1510 1510 1510
1497 1496 1495 1494 1493 1492 1492 1492 1493 1493 1494 1494 1495 1494 1494 1494 1493 1492 1492 1492 1492 1492 1493 1494 1495 1497 1498 1499 1499 1500 1500 1501 1502 1504 1504 1504 1505 1506 1507 1507 1508 1508 1508
1495 1494 1493 1492 1491 1490 1490 1489 1489 1490 1491 1492 1491 1491 1491 1491 1490 1490 1489 1489 1488 1488 1489 1489 1491 1493 1494 1495 1495 1496 1496 1497 1498 1500 1501 1501 1502 1503 1504 1504 1505 1505 1506
1493 1492 1492 1491 1490 1489 1488 1488 1487 1487 1488 1488 1488 1488 1488 1487 1487 1487 1486 1485 1485 1485 1485 1485 1487 1489 1490 1491 1491 1491 1492 1493 1495 1496 1497 1498 1499 1500 1500 1501 1502 1503 1503
1491 1491 1490 1489 1489 1488 1487 1487 1486 1486 1486 1486 1485 1485 1484 1484 1483 1483 1483 1482 1482 1482 1482 1482 1483 1485 1486 1486 1486 1487 1488 1489 1491 1492 1493 1494 1495 1496 1497 1498 1499 1500 1501
1489 1489 1488 1488 1487 1486 1486 1485 1485 1484 1483 1483 1482 1481 1480 1480 1480 1480 1479 1479 1478 1478 1478 1478 1479 1480 1480 1481 1482 1483 1485 1486 1487 1489 1490 1491 1492 1493 1494 1495 1496 1497 1497
1486 1486 1486 1486 1485 1485 1484 1483 1482 1481 1480 1479 1478 1477 1477 1477 1476 1476 1476 1476 1475 1474 1474 1473 1474 1474 1475 1477 1478 1479 1481 1482 1484 1485 1486 1487 1488 1489 1490 1491 1492 1493 1494
1484 1484 1484 1484 1484 1483 1482 1481 1479 1478 1477 1476 1474 1474 1473 1473 1472 1473 1473 1472 1471 1471 1470 1470 1469 1470 1471 1472 1473 1475 1477 1478 1480 1482 1483 1484 1484 1485 1486 1487 1488 1489 1490
1483 1483 1483 1483 1483 1482 1480 1479 1477 1475 1474 1472 1471 1470 1469 1469 1469 1470 1469 1469 1468 1468 1467 1466 1466 1466 1467 1468 1469 1471 1472 1474 1475 1477 1479 1479 1479 1480 1481 1482 1482 1484 1484
1481 1481 1481 1481 1480 1480 1478 1476 1474 1472 1471 1469 1468 1467 1467 1467 1466 1466 1466 1466 1465 1465 1464 1463 1463 1463 1463 1464 1466 1466 1468 1469 1470 1471 1473 1474 1475 1475 1475 1476 1477 1478 1479
1481 1480 1479 1479 1478 1476 1475 1473 1471 1469 1467 1466 1465 1464 1464 1464 1463 1464 1464 1464 1463 1463 1462 1461 1461 1460 1460 1461 1462 1463 1464 1466 1466 1466 1467 1469 1470 1470 1471 1471 1472 1473 1474
1479 1478 1477 1476 1474 1473 1472 1470 1467 1465 1464 1463 1462 1461 1461 1461 1461 1461 1461 1461 1461 1461 1460 1460 1460 1460 1460 1459 1460 1461 1461 1461 1463 1464 1464 1465 1466 1467 1468 1468 1468 1469 1469
1479 1475 1473 1473 1471 1469 1468 1466 1464 1462 1461 1461 1460 1459 1458 1458 1458 1458 1458 1459 1459 1459 1458 1458 1458 1458 1459 1458 1458 1458 1458 1458 1460 1462 1463 1463 1463 1464 1464 1464 1464 1465 1465
1478 1474 1470 1469 1467 1465 1464 1462 1460 1459 1458 1457 1456 1456 1455 1455 1455 1455 1455 1456 1456 1456 1456 1455 1455 1456 1456 1457 1457 1456 1455 1455 1457 1459 1460 1461 1461 1461 1461 1461 1460 1460 1460
1478 1473 1468 1465 1463 1461 1460 1458 1457 1455 1454 1453 1453 1452 1451 1451 1451 1452 1452 1453 1453 1453 1453 1453 1453 1453 1454 1455 1455 1454 1454 1453 1454 1455 1456 1456 1457 1458 1457 1457 1457 1456 1455